Date String (YYYY-MM-DD hh:mm:ss) UTC,Instrument flags,absolute air pressure of the measurement (hPa),sample flow rate (lpm),inlet stack bypass flow (lpm),air temperature of the measurement (°C),ambient temperature measured by the external sensor (°C),aerosol sample conditioner tube jacket temperature (°C),OPC LED temperature (°C),internal box temperature (°C),relative humidity of the measurement (%),span deviation,mass concentration of particles derived from Lorenz-Mie calculation of OPC scattering (μg/m³),mass concentration of particles derived from Lorenz-Mie calculation of OPC scattering (μg/m³),mass concentration of particles derived from Lorenz-Mie calculation of OPC scattering (μg/m³)
DateTimeUTC,F1_M11,P_M11,Q1_M11,Q2_M11,T1_M11,T2_M11,T3_M11,T4_M11,T5_M11,U1_M11,ZSPAN_M11,X2_M11,X0_M11,X1_M11
2024-02-01 19:00:00,SystemResetWarning,0824.0,5.00,000.00,026.0,024.0,000.0,034.8,027.3,10.9,0007.5,0008.29,0022.09,0007.19
2024-02-01 19:01:00,SystemResetWarning,0823.9,5.00,000.00,026.0,024.3,000.0,034.7,027.5,11.0,0007.7,0008.37,0023.25,0007.22
2024-02-01 19:02:00,SystemResetWarning,0823.9,5.00,000.00,026.0,024.6,000.0,034.6,027.6,11.0,0007.2,0008.54,0023.64,0007.33
2024-02-01 19:03:00,SystemResetWarning,0824.0,4.99,000.00,026.0,024.8,000.0,034.6,027.7,11.0,0006.8,0008.69,0023.19,0007.44
2024-02-01 19:04:00,SystemResetWarning,0824.0,5.00,000.00,026.0,025.0,000.0,034.6,027.8,10.9,0006.7,0008.80,0023.04,0007.53
2024-02-01 19:05:00,SystemResetWarning,0824.0,5.01,000.00,026.1,025.1,000.0,034.5,027.8,10.9,0006.7,0008.88,0023.90,0007.59
2024-02-01 19:06:00,SystemResetWarning,0823.9,5.00,000.00,026.1,025.2,000.0,034.5,027.8,10.7,0006.6,0008.79,0021.61,0007.49
2024-02-01 19:07:00,SystemResetWarning,0823.9,5.00,000.00,026.1,025.4,000.0,034.5,027.9,10.7,0006.4,0008.58,0019.55,0007.27
2024-02-01 19:08:00,SystemResetWarning,0824.0,5.00,000.00,026.2,025.5,000.0,034.5,028.0,10.4,0006.4,0008.25,0019.20,0007.00
2024-02-01 19:09:00,SystemResetWarning,0823.9,4.99,000.00,026.2,025.5,000.0,034.5,028.0,10.3,0006.7,0007.86,0018.84,0006.70
2024-02-01 19:10:00,SystemResetWarning,0823.9,4.99,000.00,026.3,025.6,000.0,034.5,028.0,10.0,0006.3,0007.48,0017.06,0006.42
2024-02-01 19:11:00,SystemResetWarning,0823.9,5.01,000.00,026.3,025.7,000.0,034.5,028.1,10.2,0005.6,0007.08,0015.52,0006.09
2024-02-01 19:12:00,SystemResetWarning,0823.8,5.01,000.00,026.3,025.7,000.0,034.5,028.1,10.2,0002.2,0006.73,0014.18,0005.80
2024-02-01 19:13:00,SystemResetWarning,0823.8,5.01,000.00,026.4,025.8,000.0,034.6,028.1,10.1,0000.0,0006.42,0013.72,0005.55
2024-02-01 19:14:00,SystemResetWarning,0823.8,5.00,000.00,026.4,025.9,000.0,034.6,028.2,10.2,0000.0,0006.03,0012.66,0005.25
2024-02-01 19:15:00,SystemResetWarning,0823.8,5.00,000.00,026.4,025.9,000.0,034.6,028.2,10.3,0000.0,0005.62,0011.96,0004.92
2024-02-01 19:16:00,SystemResetWarning,0823.8,5.01,000.00,026.5,026.0,000.0,034.6,028.3,10.2,0000.0,0005.28,0010.70,0004.63
2024-02-01 19:17:00,SystemResetWarning,0823.8,4.99,000.00,026.5,026.0,000.0,034.7,028.3,10.3,0000.0,0005.01,0010.46,0004.40
2024-02-01 19:18:00,SystemResetWarning,0823.8,4.98,000.00,026.5,026.0,000.0,034.7,028.3,10.2,0000.0,0004.76,0010.07,0004.21
2024-02-01 19:19:00,SystemResetWarning,0823.8,5.00,000.00,026.6,026.1,000.0,034.7,028.3,10.0,0000.0,0004.57,0009.41,0004.02
2024-02-01 19:20:00,SystemResetWarning,0823.7,4.99,000.00,026.4,024.8,000.0,034.8,027.7,10.2,0000.0,0004.43,0008.48,0003.89
2024-02-01 19:21:00,SystemResetWarning,0823.6,5.00,000.00,026.0,022.5,000.0,034.8,026.6,10.5,0000.0,0004.37,0008.46,0003.82
2024-02-01 19:22:00,SystemResetWarning,0823.5,5.02,000.00,025.6,022.2,000.0,034.8,026.3,10.6,0000.0,0004.41,0009.19,0003.82
2024-02-01 19:23:00,SystemResetWarning,0823.5,5.01,000.00,025.5,022.6,000.0,034.6,026.3,10.6,0000.0,0004.45,0009.67,0003.83
2024-02-01 19:24:00,SystemResetWarning,0823.5,5.00,000.00,025.5,023.0,000.0,034.4,026.6,10.6,0000.0,0004.36,0010.69,0003.77
2024-02-01 19:25:00,SystemResetWarning,0823.5,5.00,000.00,025.5,023.4,000.0,034.3,026.8,10.6,0000.0,0004.35,0011.48,0003.73
2024-02-01 19:26:00,SystemResetWarning,0823.5,5.01,000.00,025.5,023.8,000.0,034.2,027.0,10.6,0000.0,0004.32,0011.59,0003.67
2024-02-01 19:27:00,SystemResetWarning,0823.5,5.00,000.00,025.5,024.1,000.0,034.2,027.2,10.7,0000.0,0004.25,0012.22,0003.62
2024-02-01 19:28:00,SystemResetWarning,0823.5,4.99,000.00,025.6,024.4,000.0,034.1,027.3,10.7,0000.0,0004.24,0012.14,0003.60
2024-02-01 19:29:00,SystemResetWarning,0823.5,5.00,000.00,025.6,024.6,000.0,034.1,027.3,10.5,0000.0,0004.24,0012.30,0003.59
2024-02-01 19:30:00,SystemResetWarning,0823.5,5.00,000.00,025.7,024.8,000.0,034.1,027.4,10.7,0000.0,0004.24,0012.60,0003.60
2024-02-01 19:31:00,SystemResetWarning,0823.5,5.00,000.00,025.7,024.9,000.0,034.1,027.5,10.5,0000.0,0004.29,0013.24,0003.63
2024-02-01 19:32:00,SystemResetWarning,0823.5,5.00,000.00,025.8,025.1,000.0,034.1,027.6,10.7,0000.0,0004.34,0013.70,0003.68
2024-02-01 19:33:00,SystemResetWarning,0823.5,5.00,000.00,025.8,025.2,000.0,034.1,027.7,10.5,0000.0,0004.37,0013.55,0003.70
2024-02-01 19:34:00,SystemResetWarning,0823.4,5.00,000.00,025.9,025.3,000.0,034.1,027.7,10.4,0000.0,0004.36,0014.69,0003.68
2024-02-01 19:35:00,SystemResetWarning,0823.5,5.00,000.00,025.9,025.4,000.0,034.1,027.7,10.4,0000.0,0004.38,0014.71,0003.69
2024-02-01 19:36:00,SystemResetWarning,0823.4,5.01,000.00,026.0,025.4,000.0,034.1,027.8,10.3,0000.0,0004.42,0013.90,0003.71
2024-02-01 19:37:00,SystemResetWarning,0823.4,5.00,000.00,026.0,025.5,000.0,034.2,027.9,10.4,0000.0,0004.43,0013.98,0003.74
2024-02-01 19:38:00,SystemResetWarning,0823.4,4.99,000.00,026.1,025.6,000.0,034.2,027.9,10.2,0000.0,0004.50,0015.46,0003.77
2024-02-01 19:39:00,SystemResetWarning,0823.4,4.99,000.00,026.1,025.7,000.0,034.2,027.9,10.1,0000.0,0004.52,0015.31,0003.77
2024-02-01 19:40:00,SystemResetWarning,0823.5,5.00,000.00,026.1,025.7,000.0,034.2,028.0,10.1,0000.0,0004.48,0015.23,0003.74
2024-02-01 19:41:00,SystemResetWarning,0823.4,5.00,000.00,026.2,025.8,000.0,034.3,028.0,10.1,0000.0,0004.45,0015.84,0003.72
2024-02-01 19:42:00,SystemResetWarning,0823.4,5.00,000.00,026.2,025.8,000.0,034.3,028.1,10.3,0000.0,0004.39,0015.56,0003.68
2024-02-01 19:43:00,SystemResetWarning,0823.4,5.00,000.00,026.3,025.9,000.0,034.3,028.1,10.1,0000.0,0004.34,0015.66,0003.62
2024-02-01 19:44:00,SystemResetWarning,0823.3,5.00,000.00,026.3,025.9,000.0,034.4,028.2,10.1,0000.0,0004.28,0015.68,0003.57
2024-02-01 19:45:00,SystemResetWarning,0823.3,5.00,000.00,026.4,026.0,000.0,034.4,028.2,10.1,0000.0,0004.24,0015.32,0003.54
2024-02-01 19:46:00,SystemResetWarning,0823.3,5.00,000.00,026.4,026.0,000.0,034.4,028.2,10.1,0000.0,0004.13,0013.60,0003.48
2024-02-01 19:47:00,SystemResetWarning,0823.3,5.00,000.00,026.4,025.9,000.0,034.5,028.1,10.1,0000.0,0004.04,0013.76,0003.41
2024-02-01 19:48:00,SystemResetWarning,0823.2,4.97,000.00,026.2,023.8,000.0,034.6,027.1,10.2,0000.0,0003.96,0013.69,0003.37
2024-02-01 19:49:00,SystemResetWarning,0823.1,5.03,000.00,025.7,021.9,000.0,034.6,026.1,10.5,0000.0,0003.90,0012.33,0003.33
2024-02-01 19:50:00,SystemResetWarning,0823.1,4.99,000.00,025.4,022.0,000.0,034.5,026.0,10.8,0000.0,0003.83,0012.56,0003.30
2024-02-01 19:51:00,SystemResetWarning,0823.0,4.99,000.00,025.3,022.4,000.0,034.3,026.2,10.7,0000.0,0003.81,0013.22,0003.27
2024-02-01 19:52:00,SystemResetWarning,0823.1,5.00,000.00,025.3,022.9,000.0,034.2,026.4,10.7,0000.0,0003.78,0012.28,0003.22
2024-02-01 19:53:00,SystemResetWarning,0823.1,5.01,000.00,025.3,023.3,000.0,034.0,026.7,11.0,0000.0,0003.71,0012.10,0003.19
2024-02-01 19:54:00,SystemResetWarning,0823.0,5.02,000.00,025.3,023.7,000.0,034.0,026.8,10.9,0000.0,0003.64,0011.57,0003.17
2024-02-01 19:55:00,SystemResetWarning,0823.0,4.99,000.00,025.4,024.0,000.0,033.9,027.0,10.9,0000.0,0003.59,0011.28,0003.12
2024-02-01 19:56:00,SystemResetWarning,0823.0,4.99,000.00,025.4,024.3,000.0,033.9,027.1,10.7,0000.0,0003.51,0010.98,0003.08
2024-02-01 19:57:00,SystemResetWarning,0823.0,4.99,000.00,025.5,024.5,000.0,033.9,027.2,10.6,0000.0,0003.48,0011.00,0003.03
2024-02-01 19:58:00,SystemResetWarning,0823.0,5.00,000.00,025.5,024.7,000.0,033.9,027.3,10.6,0000.0,0003.46,0010.90,0002.98
2024-02-01 19:59:00,SystemResetWarning,0823.0,5.01,000.00,025.6,024.9,000.0,033.9,027.4,10.5,0000.0,0003.42,0011.15,0002.90
